Flag for Germany Weather past 2 weeks in Dillenburg, Hesse, Germany

Now
59 °F

Scattered clouds.


Feels Like: 57 °F
Forecast: 41 / 70 °F
Wind: 10 mph from Northwest

Location: Hessen

Current Time: Jun 3, 2015 at 5:47:54 PM

Latest Report: Jun 3, 2015 at 4:50 PM


Visibility: N/A

Pressure: 30.21 "Hg

Humidity: 63%

Dew point: 46 °F

Location of DillenburgLocation

Historic Weather in Dillenburg — Graph

°F

Dillenburg temperature yesterday

Maximum temperature yesterday: 68 °F (at 4:20 PM)
Minimum temperature yesterday: 46 °F (at 7:20 AM)
Average temperature yesterday: 59 °F

Past Weeks' High & Low Weather Summary

 TemperatureHumidityPressure
High68 °F (Jun 2, 4:20 PM)100% (May 25, 1:50 PM)30.33 "Hg (May 25, 1:50 PM)
Low41 °F (May 30, 7:50 AM)44% (May 21, 6:20 PM)29.77 "Hg (May 19, 4:20 PM)
Average53 °F71%30.05 "Hg
* Reported May 19 4:20 PM — Jun 3 4:20 PM, Dillenburg, Weather by CustomWeather, © 2015

Note: Actual official high and low records may vary slightly from our data, if they occured in-between our weather recording intervals... More about our weather records

Advertising

Dillenburg weather history for previous 24 hours

 ConditionsComfort  
Time TempWeatherWind HumidityBarometerVisibility
4:20 PM
Wed, Jun 3
61 °FScattered clouds.12 mph68%30.21 "HgN/A
3:50 PM59 °FScattered clouds.13 mph72%30.21 "HgN/A
3:20 PM63 °FScattered clouds.10 mph68%30.21 "HgN/A
2:50 PM61 °FScattered clouds.12 mph68%30.21 "HgN/A
2:20 PM59 °FScattered clouds.12 mph72%30.21 "HgN/A
1:50 PM59 °FScattered clouds.10 mph72%30.18 "HgN/A
1:20 PM57 °FPartly sunny.8 mph82%30.18 "HgN/A
12:50 PM55 °FPartly sunny.8 mph82%30.18 "HgN/A
12:20 PM54 °FOvercast.8 mph88%30.18 "HgN/A
11:50 AM54 °FPartly sunny.9 mph88%30.15 "HgN/A
11:20 AM54 °FPartly sunny.9 mph82%30.15 "HgN/A
10:50 AM52 °FPartly sunny.9 mph88%30.15 "HgN/A
10:20 AM50 °FDrizzle. Partly sunny.9 mph100%30.15 "Hg4 mi
9:50 AM52 °FPartly sunny.10 mph100%30.12 "Hg5 mi
9:20 AM52 °FFog.10 mph100%30.12 "Hg1 mi
8:50 AM57 °FPartly sunny.10 mph82%30.09 "HgN/A
8:20 AM57 °FPartly sunny.10 mph82%30.09 "HgN/A
7:50 AM57 °FPartly sunny.9 mph82%30.07 "HgN/A
7:20 AM57 °FBroken clouds.10 mph82%30.07 "HgN/A
6:50 AM57 °FBroken clouds.9 mph82%30.07 "HgN/A
9:50 PM
Tue, Jun 2
64 °FPartly sunny.13 mph60%29.95 "HgN/A
9:20 PM64 °FScattered clouds.13 mph60%29.95 "HgN/A
8:50 PM66 °FPartly sunny.14 mph52%29.95 "HgN/A
8:20 PM66 °FScattered clouds.15 mph56%29.95 "HgN/A
7:50 PM66 °FScattered clouds.18 mph52%29.95 "HgN/A
7:20 PM66 °FPassing clouds.15 mph56%29.98 "HgN/A
6:50 PM68 °FSunny.N/A53%29.98 "Hg10 mi
6:20 PM68 °FSunny.N/A53%29.98 "Hg10 mi
5:50 PM68 °FPassing clouds.21 mph53%29.98 "HgN/A
5:20 PM68 °FSunny.21 mph56%29.98 "Hg10 mi
Weather by CustomWeather, © 2015

See weather overviewHow to use our weather pages